{"data":{"norad_id":66975,"epoch":"2026-09-20T08:26:46.046976Z","epoch_age_seconds":94466,"freshness":"FRESH","line1":"1 66975U 25288S   26263.35192184  .00014913  00000+0  55026-3 0  9998","line2":"2 66975  43.0035   4.5214 0001382 252.2875 107.7826 15.27584844 45054","mean_motion":15.27584844,"eccentricity":0.0001382,"inclination_deg":43.0035,"raan_deg":4.5214,"arg_perigee_deg":252.2875,"mean_anomaly_deg":107.7826,"bstar":0.00055026,"rev_number":4505,"period_min":94.266449792035,"perigee_km":482.08637748543,"apogee_km":483.98280531329,"semimajor_km":6861.1715913994,"source":"CELESTRAK","updated_at":"2026-09-21T09:00:36.065290Z"}}